Stations météo

réclame
Mon MeteoGroup
Amsterdam Airport, Pays-Bas (6240): Température de l'air & dewpoint: 19.09.2018 13:00:00 - 25.09.2018 13:00:00 (CEST)Amsterdam Airport, Pays-Bas (6240): Température de l'air 5cm: 19.09.2018 13:00:00 - 25.09.2018 13:00:00 (CEST)Amsterdam Airport, Pays-Bas (6240): Vitesse du vent & gusts: 19.09.2018 13:00:00 - 25.09.2018 13:00:00 (CEST)Amsterdam Airport, Pays-Bas (6240): Direction du vent: 19.09.2018 13:00:00 - 25.09.2018 13:00:00 (CEST)Amsterdam Airport, Pays-Bas (6240): reduced air pressure: 19.09.2018 13:00:00 - 25.09.2018 13:00:00 (CEST)Amsterdam Airport, Pays-Bas (6240): visibility: 19.09.2018 13:00:00 - 25.09.2018 13:00:00 (CEST)Amsterdam Airport, Pays-Bas (6240): Quantités de précipitations: 19.09.2018 13:00:00 - 25.09.2018 13:00:00 (CEST)
Date & Time tt [°C] td [°C] tt 5cm [°C] ff [km/h] ff [knt] fx [km/h] fx [knt] dd ppp [hPa] vv [km] rr [mm]
25.09.2018 13:00:00 14,5 5,4 16,6 4 2 11 6 - 1039,4 10 0,0
25.09.2018 12:00:00 15,1 6,3 18,6 5 3 14 8 - 1039,5 10 0,0
25.09.2018 11:00:00 14,1 7,7 16,6 8 4 14 8 S 1039,3 10 0,0
25.09.2018 10:00:00 12,5 8,2 12,9 9 5 14 8 SSW 1039,0 10 0,0
25.09.2018 09:00:00 9,5 8,3 7,8 2 1 7 4 - 1038,4 10 0,0
25.09.2018 08:00:00 6,4 5,8 3,4 5 3 7 4 SSE 1038,1 10 0,0
25.09.2018 07:00:00 6,6 6,3 1,8 4 2 4 2 S 1037,7 10 0,0
25.09.2018 06:00:00 6,5 6,3 1,5 2 1 4 2 S 1037,6 10 0,0
25.09.2018 05:00:00 6,9 6,6 4,3 2 1 7 4 SSE 1037,9 10 0,0
25.09.2018 04:00:00 7,1 6,8 3,0 5 3 7 4 S 1037,7 10 0,0
25.09.2018 03:00:00 6,8 6,3 4,3 5 3 7 4 SSE 1037,5 10 0,0
25.09.2018 02:00:00 9,1 8,0 8,3 9 5 18 10 SSW 1037,6 10 1,4
25.09.2018 01:00:00 7,1 5,6 3,9 5 3 7 4 SE 1037,5 10 0,0
25.09.2018 00:00:00 7,3 5,8 3,2 4 2 7 4 E 1037,4 10 0,0
24.09.2018 23:00:00 8,1 5,9 6,7 8 4 18 10 N 1037,0 10 0,0
24.09.2018 22:00:00 9,3 6,6 7,8 15 8 32 18 WNW 1036,6 10 0,1
24.09.2018 21:00:00 9,0 5,1 3,0 5 3 14 8 NW 1036,0 10 0,0
24.09.2018 20:00:00 9,5 5,4 7,2 13 7 18 10 NW 1035,7 10 0,0
24.09.2018 19:00:00 11,3 5,2 10,1 16 9 40 21 NW 1035,3 10 0,0
24.09.2018 18:00:00 13,7 5,7 13,1 26 14 40 21 NW 1035,1 10 0,0
24.09.2018 17:00:00 14,1 5,9 13,8 29 16 43 23 NW 1035,0 10 0,0
24.09.2018 16:00:00 14,9 6,0 15,2 29 16 43 23 NW 1034,9 10 0,0
24.09.2018 15:00:00 14,2 5,5 14,8 29 16 47 25 NW 1034,7 10 0,0
24.09.2018 14:00:00 14,9 4,0 16,0 29 16 40 21 NW 1034,5 10 0,0
24.09.2018 13:00:00 14,6 5,7 15,2 29 16 43 23 NW 1034,2 10 0,0
24.09.2018 12:00:00 14,9 7,3 15,9 26 14 40 21 NNW 1033,5 10 0,0
24.09.2018 11:00:00 13,2 6,5 12,3 34 18 54 29 NW 1033,1 10 0,0
24.09.2018 10:00:00 12,7 7,4 12,7 18 10 32 18 WNW 1032,4 10 0,0
24.09.2018 09:00:00 10,7 7,3 9,8 9 5 18 10 N 1031,9 8 0,0
24.09.2018 08:00:00 9,1 6,2 7,9 15 8 29 16 N 1030,9 10 0,1
24.09.2018 07:00:00 7,3 5,5 4,6 5 3 14 8 WSW 1030,2 10 0,0
24.09.2018 06:00:00 8,0 5,9 4,4 5 3 29 16 WNW 1029,7 10 0,4
24.09.2018 05:00:00 7,7 5,3 4,7 9 5 14 8 NW 1029,1 10 0,0
24.09.2018 04:00:00 8,6 5,6 4,2 5 3 14 8 WNW 1028,3 10 0,0
24.09.2018 03:00:00 8,2 5,0 5,5 11 6 22 12 NNW 1027,7 10 0,0
24.09.2018 02:00:00 9,2 5,3 5,8 15 8 22 12 NNW 1026,5 10 0,0
24.09.2018 01:00:00 9,5 5,9 4,7 13 7 22 12 NNW 1025,6 10 0,0
24.09.2018 00:00:00 8,9 4,8 7,2 13 7 32 18 NNW 1024,6 10 0,0
23.09.2018 23:00:00 8,1 5,6 5,4 9 5 18 10 NNW 1023,4 10 0,0
23.09.2018 22:00:00 8,2 7,1 5,1 9 5 14 8 WNW 1022,0 10 0,0
23.09.2018 21:00:00 9,1 7,5 8,3 11 6 22 12 NW 1020,4 10 1,2
23.09.2018 20:00:00 10,0 8,1 9,3 15 8 29 16 NNW 1018,9 10 1,8
23.09.2018 19:00:00 10,5 8,3 10,0 11 6 22 12 NW 1017,3 10 0,2
23.09.2018 18:00:00 10,5 8,7 10,2 16 9 25 14 NNW 1015,6 10 1,0
23.09.2018 17:00:00 10,9 8,4 11,6 9 5 18 10 NNW 1014,5 10 0,0
23.09.2018 16:00:00 10,2 8,6 9,7 13 7 40 21 N 1013,9 10 0,9
23.09.2018 15:00:00 10,1 8,5 9,7 21 11 36 19 N 1013,2 10 0,9
23.09.2018 14:00:00 10,4 8,7 10,2 24 13 32 18 N 1012,1 9 3,1
23.09.2018 13:00:00 11,1 10,2 11,0 16 9 29 16 NNE 1012,2 9 3,2
23.09.2018 12:00:00 11,4 10,7 11,5 8 4 18 10 N 1012,0 3,6 1,5
23.09.2018 11:00:00 11,3 10,5 11,4 5 3 18 10 NE 1012,1 5 0,3
23.09.2018 10:00:00 11,1 10,2 11,3 5 3 25 14 ESE 1012,1 4,5 0,1
23.09.2018 09:00:00 10,8 10,2 10,7 5 3 7 4 ENE 1012,2 6 0,0
23.09.2018 08:00:00 10,3 9,8 10,1 4 2 7 4 - 1012,9 4,5 0,0
23.09.2018 07:00:00 10,5 10,0 10,3 9 5 11 6 SSE 1012,9 7 0,0
23.09.2018 06:00:00 10,5 9,9 10,4 4 2 7 4 - 1013,3 7 0,0
23.09.2018 05:00:00 10,4 9,8 10,4 8 4 11 6 ESE 1013,8 6 0,0
23.09.2018 04:00:00 10,7 10,2 10,5 4 2 11 6 - 1014,3 5 0,0
23.09.2018 03:00:00 10,8 10,2 10,6 8 4 11 6 SE 1014,7 6 0,0
23.09.2018 02:00:00 10,9 10,1 10,5 8 4 14 8 SSE 1015,4 9 0,0
23.09.2018 01:00:00 11,0 10,2 10,6 15 8 22 12 S 1015,7 10 0,0
23.09.2018 00:00:00 11,1 10,2 10,7 11 6 22 12 S 1016,2 10 0,0
22.09.2018 23:00:00 11,4 10,3 11,0 16 9 22 12 S 1016,7 10 0,0
22.09.2018 22:00:00 11,5 10,4 11,1 9 5 18 10 S 1017,2 10 2,6
22.09.2018 21:00:00 11,5 10,7 11,0 4 2 22 12 - 1017,5 10 1,0
22.09.2018 20:00:00 11,7 10,5 11,1 13 7 22 12 SSW 1017,4 10 1,4
22.09.2018 19:00:00 11,6 10,7 11,2 16 9 36 19 SW 1017,2 10 2,1
22.09.2018 18:00:00 11,7 10,7 11,5 24 13 32 18 SSW 1017,4 10 0,4
22.09.2018 17:00:00 12,8 10,5 12,5 16 9 25 14 SSW 1017,7 10 0,1
22.09.2018 16:00:00 12,7 10,3 12,8 24 13 40 21 SW 1018,0 10 0,0
22.09.2018 15:00:00 12,7 10,3 12,9 28 15 43 23 SW 1018,0 10 0,0
22.09.2018 14:00:00 14,3 9,9 14,0 28 15 40 21 W 1017,9 10 0,0
22.09.2018 13:00:00 15,9 8,2 15,6 29 16 43 23 W 1017,7 10 0,0
22.09.2018 12:00:00 16,1 8,4 16,2 34 18 43 23 WSW 1017,8 10 0,0
22.09.2018 11:00:00 15,9 8,9 16,1 29 16 47 25 WSW 1017,9 10 0,0
22.09.2018 10:00:00 15,2 9,4 14,1 18 10 29 16 WSW 1017,8 10 0,0
22.09.2018 09:00:00 14,4 8,1 13,3 22 12 32 18 W 1017,7 10 0,0
22.09.2018 08:00:00 13,6 6,7 12,0 24 13 32 18 W 1017,4 10 0,0
22.09.2018 07:00:00 13,5 7,2 11,9 22 12 32 18 W 1017,2 10 0,0
22.09.2018 06:00:00 13,2 7,4 11,5 21 11 29 16 W 1016,9 10 0,0
22.09.2018 05:00:00 12,4 7,5 11,2 24 13 43 23 W 1016,7 10 0,0
22.09.2018 04:00:00 12,5 7,7 11,2 29 16 43 23 W 1016,3 10 0,0
22.09.2018 03:00:00 12,2 9,1 10,8 15 8 40 21 WNW 1015,9 10 0,1
22.09.2018 02:00:00 13,1 7,5 11,9 31 17 50 27 W 1015,0 10 0,0
22.09.2018 01:00:00 12,8 7,7 11,8 37 20 58 31 W 1014,1 10 0,0
22.09.2018 00:00:00 13,3 8,3 12,5 44 24 72 39 W 1012,9 10 0,0
21.09.2018 23:00:00 13,7 8,0 12,3 52 28 76 41 W 1011,7 10 0,0
21.09.2018 22:00:00 13,8 9,2 11,9 41 22 76 41 W 1010,8 10 0,8
21.09.2018 21:00:00 13,6 8,8 11,8 42 23 76 41 W 1009,8 10 0,4
21.09.2018 20:00:00 12,2 9,1 10,3 28 15 79 43 WSW 1009,1 10 2,0
21.09.2018 19:00:00 13,6 8,6 11,5 31 17 83 45 WSW 1008,4 10 0,6
21.09.2018 18:00:00 15,0 5,9 14,1 39 21 65 35 SW 1008,0 10 0,0
21.09.2018 17:00:00 15,7 5,7 14,9 44 24 72 39 WSW 1008,4 10 0,0
21.09.2018 16:00:00 15,1 6,2 14,2 41 22 65 35 WSW 1008,2 10 0,0
21.09.2018 15:00:00 15,3 6,2 15,2 46 25 61 33 WSW 1007,8 10 0,0
21.09.2018 14:00:00 15,5 6,9 16,0 48 26 65 35 WSW 1007,0 10 0,0
21.09.2018 13:00:00 15,0 7,3 16,1 39 21 61 33 W 1005,7 10 0,0
21.09.2018 12:00:00 15,0 10,4 13,5 44 24 65 35 W 1004,8 10 0,2
21.09.2018 11:00:00 14,3 8,7 14,2 46 25 65 35 W 1003,8 10 0,0
21.09.2018 10:00:00 16,5 10,1 16,0 42 23 65 35 WSW 1002,0 10 0,0
21.09.2018 09:00:00 15,9 11,5 14,8 39 21 65 35 WSW 1000,7 10 0,8
21.09.2018 08:00:00 17,1 15,2 16,4 48 26 65 35 SSW 998,8 10 1,3
21.09.2018 07:00:00 18,4 14,1 17,8 41 22 58 31 S 998,6 10 0,0
21.09.2018 06:00:00 19,3 13,3 18,5 37 20 58 31 S 999,3 10 0,0
21.09.2018 05:00:00 19,3 13,5 18,3 34 18 47 25 S 1000,2 10 0,0
21.09.2018 04:00:00 19,5 13,8 18,5 29 16 47 25 S 1001,7 10 0,0
21.09.2018 03:00:00 18,7 14,0 17,3 21 11 29 16 S 1003,1 10 0,0
21.09.2018 02:00:00 19,1 13,8 17,8 21 11 32 18 S 1004,3 10 0,0
21.09.2018 01:00:00 19,4 13,7 18,0 22 12 32 18 S 1005,4 10 0,0
21.09.2018 00:00:00 19,3 13,8 18,1 26 14 40 21 S 1006,1 10 0,0
20.09.2018 23:00:00 19,7 13,8 18,2 26 14 36 19 S 1007,2 10 0,0
20.09.2018 22:00:00 18,6 14,4 16,3 13 7 22 12 SSE 1008,3 10 0,0
20.09.2018 21:00:00 16,7 15,1 14,9 9 5 14 8 SSE 1009,4 10 0,0
20.09.2018 20:00:00 18,4 15,2 17,1 11 6 29 16 WSW 1010,3 10 0,0
20.09.2018 19:00:00 19,6 15,7 19,1 18 10 32 18 SW 1011,1 10 0,0
20.09.2018 18:00:00 21,6 14,3 20,7 21 11 36 19 SSW 1011,5 10 0,0
20.09.2018 17:00:00 21,9 14,6 21,5 24 13 36 19 SSW 1012,1 10 0,0
20.09.2018 16:00:00 21,4 14,5 22,5 29 16 40 21 SW 1013,1 10 0,0
20.09.2018 15:00:00 20,7 14,4 20,3 31 17 43 23 SW 1013,8 10 0,0
20.09.2018 14:00:00 20,6 14,7 20,5 24 13 40 21 SW 1014,3 10 0,0
20.09.2018 13:00:00 20,0 14,7 20,1 34 18 47 25 SSW 1014,5 10 0,0
20.09.2018 12:00:00 20,0 14,6 21,0 26 14 43 23 SW 1014,7 10 0,0
20.09.2018 11:00:00 19,7 15,6 20,3 29 16 - - SSW 1014,8 10 -
20.09.2018 10:00:00 19,0 15,9 18,7 21 11 32 18 S 1014,7 10 0,0
20.09.2018 09:00:00 18,0 15,2 17,6 21 11 32 18 S 1015,0 10 0,0
20.09.2018 08:00:00 16,9 14,8 16,2 16 9 29 16 S 1014,8 10 0,0
20.09.2018 07:00:00 17,0 14,8 16,1 16 9 29 16 S 1015,0 10 0,0
20.09.2018 06:00:00 17,0 14,7 16,1 18 10 25 14 SSW 1015,2 10 0,0
20.09.2018 05:00:00 16,4 14,6 15,2 16 9 25 14 SSW 1015,2 10 0,0
20.09.2018 04:00:00 17,4 14,6 16,2 21 11 29 16 SSW 1015,2 10 0,0
20.09.2018 03:00:00 17,7 14,8 16,7 22 12 29 16 SSW 1015,2 10 0,0
20.09.2018 02:00:00 18,1 15,0 17,1 22 12 36 19 SSW 1015,4 10 0,0
20.09.2018 01:00:00 18,4 15,0 17,3 22 12 36 19 SSW 1015,6 10 0,0
20.09.2018 00:00:00 18,6 14,9 17,4 24 13 40 21 SSW 1015,9 10 0,0
19.09.2018 23:00:00 19,1 14,9 18,0 26 14 43 23 SW 1016,0 10 0,0
19.09.2018 22:00:00 19,8 14,4 18,7 34 18 50 27 SW 1016,1 10 0,0
19.09.2018 21:00:00 19,8 14,1 18,7 28 15 50 27 SSW 1015,7 10 0,0
19.09.2018 20:00:00 20,3 13,9 19,0 29 16 58 31 SW 1015,3 10 0,0
19.09.2018 19:00:00 21,1 14,1 20,3 35 19 58 31 SW 1015,1 10 0,0
19.09.2018 18:00:00 21,7 14,0 21,0 37 20 58 31 SSW 1014,8 10 0,0
19.09.2018 17:00:00 22,4 14,2 21,9 39 21 58 31 SSW 1014,7 10 0,0
19.09.2018 16:00:00 22,4 13,8 22,2 39 21 54 29 SSW 1014,8 10 0,0
19.09.2018 15:00:00 22,7 13,6 23,5 37 20 50 27 SSW 1014,8 10 0,0
19.09.2018 14:00:00 22,4 13,5 23,7 34 18 50 27 SSW 1014,9 10 0,0
19.09.2018 13:00:00 21,0 14,6 20,9 35 19 47 25 SW 1014,9 10 0,0

tt = Température de l'air
td = dewpoint
tt 5cm = Température de l'air 5cm
ff = Vitesse du vent
fx = gusts
dd = Direction du vent
ppp = reduced air pressure
vv = visibility
rr = Quantités de précipitations

stations d'obs. à proximité